Location: Rokycany
(49.7330°N, 13.6000°E)
Time: 01:54:55
(UTC+02:00)

ISS - Pass Details

Date: 01 April 2019
Orbit: 408 x 410 km, 51.6° (Epoch: 23 April)

Event Time Altitude Azimuth Distance (km) Brightness Sun altitude
Rises 21:45:56 0° 288° (WNW) 2,339 1.4 -20.1°
Reaches altitude 10° 21:48:03 10° 285° (WNW) 1,475 0.0 -20.4°
Enters shadow 21:50:55 55° 241° (WSW) 500 -3.3 -20.8°
